• In France
  • List of Countries
  • For 7 days
  • Water Temperature
  • Satellite Maps
  • Weather Map
  • Weather Widgets
  • user-avatar
    Login

    Hourly Weather Ashilta

    Today, 18 October, Thursday

    Time Temperature Precipitation Wind Pressure Humidity
    00:00 +14°C° 0 mm 1 mps 713 mmHg 77%
    01:00 +14°C° 0 mm 1 mps 712 mmHg 74%
    02:00 +14°C° 0 mm 1 mps 712 mmHg 72%
    03:00 +13°C° 0 mm 1 mps 712 mmHg 70%
    04:00 +13°C° 0 mm 1 mps 712 mmHg 67%
    05:00 +13°C° 0 mm 1 mps 712 mmHg 63%
    06:00 +13°C° 0 mm 1 mps 712 mmHg 60%
    07:00 +15°C° 0 mm 1 mps 712 mmHg 54%
    08:00 +18°C° 0 mm 1 mps 712 mmHg 49%
    09:00 +20°C° 0 mm 1 mps 713 mmHg 43%
    10:00 +21°C° 0 mm 1 mps 713 mmHg 42%
    11:00 +21°C° 0 mm 2 mps 713 mmHg 41%
    12:00 +23°C° 0 mm 2 mps 713 mmHg 40%
    13:00 +21°C° 0 mm 2 mps 712 mmHg 43%
    14:00 +21°C° 0 mm 2 mps 712 mmHg 47%
    15:00 +21°C° 0 mm 3 mps 712 mmHg 50%
    16:00 +19°C° 0 mm 2 mps 712 mmHg 61%
    17:00 +17°C° 0 mm 2 mps 712 mmHg 71%
    18:00 +15°C° 0 mm 1 mps 712 mmHg 82%
    19:00 +15°C° 0 mm 1 mps 712 mmHg 80%
    20:00 +15°C° 0 mm 1 mps 712 mmHg 78%
    21:00 +15°C° 0 mm 2 mps 712 mmHg 76%
    22:00 +15°C° 0 mm 2 mps 712 mmHg 73%
    23:00 +14°C° 0 mm 2 mps 712 mmHg 69%

    Tomorrow, 19 October, Friday

    Time Temperature Precipitation Wind Pressure Humidity
    00:00 +14°C° 0 mm 2 mps 712 mmHg 65%
    01:00 +14°C° 0 mm 2 mps 711 mmHg 63%
    02:00 +14°C° 0 mm 2 mps 711 mmHg 60%
    03:00 +13°C° 0 mm 2 mps 711 mmHg 58%
    04:00 +13°C° 0 mm 2 mps 711 mmHg 56%
    05:00 +13°C° 0 mm 2 mps 711 mmHg 54%
    06:00 +13°C° 0 mm 2 mps 711 mmHg 53%
    07:00 +15°C° 0 mm 2 mps 711 mmHg 47%
    08:00 +18°C° 0 mm 2 mps 712 mmHg 41%
    09:00 +20°C° 0 mm 2 mps 712 mmHg 35%
    10:00 +21°C° 0 mm 2 mps 712 mmHg 34%
    11:00 +23°C° 0 mm 2 mps 712 mmHg 32%
    12:00 +24°C° 0 mm 3 mps 712 mmHg 31%
    13:00 +24°C° 0 mm 3 mps 711 mmHg 34%
    14:00 +24°C° 0 mm 3 mps 711 mmHg 38%
    15:00 +22°C° 0 mm 3 mps 711 mmHg 42%
    16:00 +20°C° 0 mm 2 mps 711 mmHg 53%
    17:00 +18°C° 0 mm 2 mps 710 mmHg 63%
    18:00 +16°C° 0 mm 2 mps 710 mmHg 73%
    19:00 +16°C° 0 mm 2 mps 710 mmHg 71%
    20:00 +16°C° 0 mm 2 mps 710 mmHg 69%
    21:00 +16°C° 0 mm 2 mps 710 mmHg 67%
    22:00 +15°C° 0 mm 2 mps 710 mmHg 66%
    23:00 +15°C° 0 mm 2 mps 710 mmHg 64%

    Day after tomorrow, 20 October, Saturday

    Time Temperature Precipitation Wind Pressure Humidity
    00:00 +15°C° 0 mm 2 mps 709 mmHg 63%
    01:00 +15°C° 0 mm 2 mps 709 mmHg 62%
    02:00 +15°C° 0 mm 2 mps 709 mmHg 61%
    03:00 +14°C° 0 mm 2 mps 709 mmHg 60%
    04:00 +14°C° 0 mm 2 mps 709 mmHg 57%
    05:00 +14°C° 0 mm 2 mps 709 mmHg 54%
    06:00 +14°C° 0 mm 2 mps 708 mmHg 52%
    07:00 +16°C° 0 mm 2 mps 709 mmHg 45%
    08:00 +19°C° 0 mm 1 mps 709 mmHg 39%
    09:00 +22°C° 0 mm 1 mps 709 mmHg 32%
    10:00 +23°C° 0 mm 1 mps 709 mmHg 31%
    11:00 +24°C° 0 mm 2 mps 709 mmHg 30%
    12:00 +25°C° 0 mm 2 mps 709 mmHg 29%
    13:00 +24°C° 0 mm 2 mps 709 mmHg 31%
    14:00 +24°C° 0 mm 2 mps 709 mmHg 34%
    15:00 +24°C° 0 mm 2 mps 708 mmHg 36%
    16:00 +21°C° 0 mm 2 mps 708 mmHg 44%
    17:00 +20°C° 0 mm 1 mps 708 mmHg 52%
    18:00 +18°C° 0 mm 1 mps 708 mmHg 60%
    19:00 +18°C° 0 mm 1 mps 708 mmHg 57%
    20:00 +16°C° 0 mm 1 mps 708 mmHg 54%
    21:00 +16°C° 0 mm 1 mps 708 mmHg 52%
    22:00 +16°C° 0 mm 1 mps 708 mmHg 49%
    23:00 +16°C° 0 mm 1 mps 708 mmHg 47%

    21 October, Sunday

    Time Temperature Precipitation Wind Pressure Humidity
    00:00 +15°C° 0 mm 1 mps 707 mmHg 45%
    01:00 +15°C° 0 mm 1 mps 707 mmHg 45%
    02:00 +15°C° 0 mm 2 mps 707 mmHg 44%
    03:00 +15°C° 0 mm 2 mps 707 mmHg 43%
    04:00 +15°C° 0 mm 2 mps 707 mmHg 44%
    05:00 +14°C° 0 mm 2 mps 707 mmHg 44%
    06:00 +14°C° 0 mm 2 mps 707 mmHg 44%
    07:00 +18°C° 0 mm 1 mps 707 mmHg 40%
    08:00 +20°C° 0 mm 1 mps 708 mmHg 36%
    09:00 +20°C° 0 mm 0 mps 708 mmHg 32%
    10:00 +23°C° 0 mm 1 mps 708 mmHg 31%
    11:00 +24°C° 0 mm 1 mps 708 mmHg 30%
    12:00 +25°C° 0 mm 2 mps 707 mmHg 30%
    13:00 +24°C° 0 mm 2 mps 707 mmHg 33%
    14:00 +24°C° 0 mm 2 mps 707 mmHg 36%
    15:00 +23°C° 0 mm 2 mps 706 mmHg 39%
    16:00 +21°C° 0 mm 2 mps 706 mmHg 46%
    17:00 +20°C° 0 mm 1 mps 706 mmHg 54%
    18:00 +18°C° 0 mm 1 mps 706 mmHg 62%
    19:00 +18°C° 0 mm 1 mps 706 mmHg 62%
    20:00 +18°C° 0 mm 1 mps 706 mmHg 62%
    21:00 +18°C° 0 mm 1 mps 706 mmHg 63%
    22:00 +16°C° 0 mm 1 mps 706 mmHg 63%
    23:00 +16°C° 0 mm 1 mps 706 mmHg 63%

    22 October, Monday

    Time Temperature Precipitation Wind Pressure Humidity
    00:00 +16°C° 0 mm 1 mps 706 mmHg 64%
    01:00 +16°C° 0 mm 1 mps 706 mmHg 64%
    02:00 +15°C° 0 mm 1 mps 706 mmHg 64%
    03:00 +15°C° 0 mm 1 mps 706 mmHg 65%
    04:00 +15°C° 0 mm 1 mps 706 mmHg 65%
    05:00 +15°C° 0 mm 1 mps 706 mmHg 65%
    06:00 +14°C° 0 mm 0 mps 706 mmHg 66%
    07:00 +15°C° 0 mm 0 mps 706 mmHg 62%
    08:00 +16°C° 0 mm 0 mps 706 mmHg 58%
    09:00 +18°C° 0 mm 0 mps 707 mmHg 54%
    10:00 +21°C° 0 mm 1 mps 707 mmHg 52%
    11:00 +21°C° 0 mm 1 mps 707 mmHg 50%
    12:00 +22°C° 0 mm 1 mps 707 mmHg 48%
    13:00 +21°C° 0 mm 2 mps 707 mmHg 50%
    14:00 +21°C° 0 mm 2 mps 707 mmHg 52%
    15:00 +21°C° 0 mm 2 mps 706 mmHg 54%
    16:00 +20°C° 0 mm 1 mps 707 mmHg 62%
    17:00 +19°C° 0 mm 1 mps 707 mmHg 70%
    18:00 +16°C° 0 mm 1 mps 707 mmHg 77%
    19:00 +16°C° 0 mm 1 mps 707 mmHg 77%
    20:00 +16°C° 0 mm 1 mps 707 mmHg 77%
    21:00 +16°C° 0 mm 1 mps 707 mmHg 76%
    22:00 +16°C° 0 mm 1 mps 707 mmHg 76%
    23:00 +15°C° 0 mm 1 mps 707 mmHg 75%

    23 October, Tuesday

    Time Temperature Precipitation Wind Pressure Humidity
    00:00 +15°C° 0 mm 1 mps 707 mmHg 74%
    01:00 +15°C° 0 mm 1 mps 707 mmHg 73%
    02:00 +15°C° 0 mm 1 mps 707 mmHg 72%
    03:00 +15°C° 0 mm 1 mps 707 mmHg 71%
    04:00 +15°C° 0 mm 1 mps 707 mmHg 70%
    05:00 +15°C° 0 mm 1 mps 707 mmHg 69%
    06:00 +15°C° 0 mm 2 mps 707 mmHg 68%
    07:00 +18°C° 0 mm 1 mps 708 mmHg 61%
    08:00 +20°C° 0 mm 1 mps 708 mmHg 53%
    09:00 +22°C° 0 mm 1 mps 708 mmHg 46%
    10:00 +23°C° 0 mm 2 mps 708 mmHg 43%
    11:00 +24°C° 0 mm 2 mps 708 mmHg 40%
    12:00 +25°C° 0 mm 3 mps 708 mmHg 36%
    13:00 +25°C° 0 mm 3 mps 707 mmHg 37%
    14:00 +25°C° 0 mm 3 mps 707 mmHg 38%
    15:00 +24°C° 0 mm 3 mps 706 mmHg 39%
    16:00 +22°C° 0 mm 3 mps 706 mmHg 44%
    17:00 +20°C° 0 mm 2 mps 706 mmHg 50%
    18:00 +18°C° 0 mm 2 mps 706 mmHg 56%
    19:00 +18°C° 0 mm 2 mps 706 mmHg 56%
    20:00 +18°C° 0 mm 2 mps 706 mmHg 57%
    21:00 +17°C° 0 mm 2 mps 706 mmHg 58%
    22:00 +17°C° 0 mm 2 mps 705 mmHg 57%
    23:00 +17°C° 0 mm 3 mps 705 mmHg 57%
    Show more